GFSFLT1_925_temp_273.txt.gz
Temp
34 33 32 31 30 29 29 28 27 26 26 26 25 26 26 26 26 26 25 25 24 24 24 23 22 22 21 21 21 21 21 21 21
33 33 32 30 29 28 29 28 27 27 26 25 26 26 26 26 25 25 25 24 24 24 23 22 22 22 21 21 20 20 20 20 20
32 32 31 30 29 28 29 30 28 27 26 26 26 26 26 25 25 25 24 24 23 23 23 22 22 21 21 20 20 20 20 20 20
32 32 31 30 29 29 29 29 27 27 26 26 26 26 26 25 25 24 24 23 23 22 22 21 21 21 21 20 20 20 19 20 20
33 32 31 30 29 29 28 29 27 27 27 26 26 26 26 25 24 24 24 23 22 22 22 21 21 21 20 20 20 20 20 20 20
32 31 30 30 29 28 28 28 27 27 27 27 27 27 26 25 25 24 24 23 22 22 21 21 21 21 21 20 20 20 20 19 19
25 31 30 30 29 28 28 28 28 27 28 28 27 26 26 25 25 24 24 23 22 21 21 21 21 21 21 21 20 20 20 20 19
29 31 31 30 29 28 27 27 28 28 28 27 27 26 25 25 25 24 23 22 22 21 21 21 21 21 21 20 20 20 20 20 20
32 32 32 31 30 28 28 27 27 27 28 27 26 25 25 24 24 23 23 22 21 21 20 20 20 20 20 20 20 20 20 19 19
32 32 32 31 30 29 29 28 27 27 28 26 26 25 24 24 23 22 22 21 20 20 20 20 20 20 20 20 20 19 19 19 18
33 34 30 30 30 30 29 28 27 27 27 26 25 24 23 22 22 22 21 20 20 20 20 20 20 20 20 19 19 19 19 18 18
32 31 31 29 30 30 28 28 27 26 25 25 24 22 21 21 22 21 20 20 20 20 20 20 20 20 19 19 19 19 18 18 17
29 26 25 30 32 30 28 26 26 25 24 23 22 21 21 21 21 20 20 20 20 20 20 20 20 20 20 19 19 19 18 18 17
28 26 23 24 23 19 19 18 16 15 21 21 22 21 21 21 20 20 20 20 20 20 19 19 19 19 19 19 19 19 18 18 18
25 22 22 21 20 19 23 24 19 17 17 19 20 20 20 21 21 21 20 20 19 19 19 18 19 19 19 19 19 19 19 19 18
22 22 20 19 18 17 18 20 17 16 16 20 20 21 21 21 21 20 20 19 19 18 18 18 19 19 19 20 19 19 19 19 18
23 22 20 19 18 16 16 17 19 20 18 19 20 19 20 20 20 19 19 19 19 19 19 19 19 19 19 19 20 19 19 18 18
22 21 20 19 19 18 18 18 17 17 18 18 19 20 21 20 20 20 20 20 20 19 20 21 21 21 21 20 19 20 19 19 18
23 22 20 20 20 19 18 18 18 18 18 20 21 20 20 20 21 20 20 20 21 21 22 22 22 22 21 21 20 20 20 19 19
20 19 20 20 19 20 19 20 20 20 20 21 21 21 21 21 21 21 21 21 21 22 23 22 21 21 21 21 20 20 18 18 18

GFSFLT1_925_temp_276.txt.gz
Temp
30 30 29 29 27 27 27 26 25 26 26 26 26 26 26 26 26 25 25 25 24 24 23 22 22 22 21 21 21 20 20 21 21
31 30 30 29 28 27 26 25 26 26 26 26 26 25 25 25 25 25 25 24 23 23 23 22 21 21 21 20 20 20 19 20 20
29 30 29 28 27 27 26 26 26 27 26 25 25 25 25 25 25 25 24 24 23 23 22 22 21 21 20 20 19 19 19 19 20
29 29 28 27 27 27 26 26 26 26 26 25 25 25 25 25 24 24 24 23 23 22 22 21 21 20 20 20 19 19 19 19 19
30 30 28 27 26 27 25 25 25 25 26 25 25 25 25 25 24 23 23 23 22 22 22 21 21 20 20 20 20 19 19 19 19
28 28 27 27 26 26 26 24 25 25 25 25 26 25 25 24 23 23 23 23 22 22 21 21 20 20 20 20 20 20 19 19 19
28 29 27 27 26 26 26 25 25 25 26 26 26 25 25 24 24 23 23 23 22 21 21 21 21 20 20 20 20 20 19 19 19
30 27 27 27 27 26 26 25 25 25 26 26 26 25 24 24 23 23 23 23 22 21 21 21 20 20 20 20 20 20 19 19 19
26 28 29 28 28 26 26 26 25 25 26 26 26 25 24 24 23 23 23 22 22 21 21 20 20 20 20 20 20 20 19 19 19
28 28 29 29 28 27 27 26 26 25 25 26 24 25 24 24 23 22 22 22 21 21 20 20 20 20 20 20 19 19 19 19 18
29 31 29 28 28 28 28 27 26 26 22 22 22 23 23 23 22 22 22 22 21 21 20 20 19 19 19 19 19 19 18 18 18
24 23 23 24 29 29 27 26 23 21 20 17 16 16 19 22 22 21 21 21 20 20 20 19 19 19 19 19 19 18 18 18 17
23 22 20 21 26 20 19 18 18 19 18 18 18 17 17 17 20 21 21 21 21 20 19 19 19 19 19 19 19 19 18 18 17
22 21 19 18 18 17 18 21 22 19 18 20 17 17 17 18 20 20 20 20 20 20 19 19 19 19 19 19 19 19 18 18 17
20 20 19 20 19 18 19 21 22 18 18 18 20 17 18 18 19 19 19 20 20 19 19 19 19 19 19 19 19 19 18 18 18
20 19 18 18 17 16 18 18 19 16 16 16 20 18 18 19 19 20 20 20 19 19 18 18 19 18 18 19 19 19 19 18 18
19 19 17 17 16 16 16 17 17 17 18 18 18 18 19 19 20 20 20 19 19 19 18 19 18 18 18 19 20 20 20 19 18
19 18 18 18 18 17 17 19 18 17 18 18 18 19 20 20 20 20 20 19 19 19 20 20 20 20 19 18 19 21 21 20 18
19 18 18 18 18 18 17 17 17 17 18 18 18 19 20 20 20 21 20 20 20 20 20 20 20 20 20 20 20 19 19 19 19
19 19 19 19 19 18 17 17 18 18 18 18 19 20 20 19 20 21 21 20 20 20 20 21 20 20 19 19 19 19 18 18 18

GFSFLT1_925_temp_279.txt.gz
Temp
28 27 28 27 26 25 25 25 25 26 26 25 25 25 25 25 25 25 25 25 24 24 23 22 21 21 21 21 20 20 20 20 21
28 28 28 27 27 26 25 25 25 26 25 25 26 25 25 25 25 25 25 24 24 23 22 22 21 21 21 20 20 20 20 20 20
28 27 27 27 26 26 25 25 25 25 26 26 26 25 25 25 25 25 24 24 24 23 22 21 21 21 20 20 19 19 19 19 19
27 26 26 26 26 26 25 25 25 26 26 26 25 25 25 25 25 24 24 23 23 23 22 21 21 20 20 19 19 19 19 19 19
27 26 26 25 25 25 24 24 24 25 25 25 25 25 25 25 24 24 24 23 23 22 22 21 21 20 20 19 19 19 19 19 19
27 26 24 24 23 23 24 24 24 24 25 25 25 25 24 24 24 23 23 23 22 22 21 21 20 20 20 20 19 19 19 19 19
26 25 24 24 24 24 24 24 24 24 25 25 25 24 24 24 23 23 23 23 22 22 21 21 20 20 20 20 19 19 19 19 19
26 25 24 25 25 25 24 24 24 24 24 24 25 25 24 24 24 23 23 22 22 22 21 21 21 20 20 20 19 19 19 19 19
27 26 26 26 26 25 24 24 24 23 23 22 22 23 22 23 23 22 22 22 21 21 21 20 20 20 20 20 19 20 19 19 19
27 28 27 26 25 25 25 25 24 24 24 23 22 20 19 19 18 20 21 21 21 21 21 20 20 20 19 19 19 19 19 18 18
25 24 25 25 25 26 26 26 23 20 20 20 19 18 18 19 19 17 17 18 20 21 20 20 20 19 19 19 19 19 18 18 18
23 22 21 21 22 26 25 23 20 20 20 20 18 17 19 17 19 19 20 18 17 19 19 19 19 19 19 19 19 19 18 18 17
21 20 19 19 20 20 19 17 19 20 18 18 21 21 23 19 22 17 17 17 17 19 19 19 19 19 19 19 19 19 18 18 17
20 19 18 19 19 17 17 18 19 19 19 19 19 18 18 19 19 19 19 18 17 18 19 19 19 19 19 19 19 19 18 18 17
19 18 19 18 18 18 19 19 19 18 17 17 18 18 18 17 17 17 16 16 17 17 19 19 19 18 18 18 18 18 18 18 18
18 17 17 17 18 17 17 18 19 17 16 17 18 18 18 17 17 16 16 16 17 18 19 19 18 18 18 19 19 19 19 18 18
18 17 17 17 17 16 15 16 17 16 17 17 18 18 18 18 17 17 17 18 18 19 18 18 18 18 18 19 19 19 20 19 19
18 17 17 18 17 16 16 17 18 18 18 18 18 18 19 20 20 19 18 18 19 19 20 20 20 20 19 19 19 20 20 20 19
18 17 18 18 17 17 17 17 17 17 18 17 18 18 19 20 20 20 18 19 19 19 19 19 19 19 18 19 19 19 20 19 19
18 18 17 17 16 17 16 16 16 17 17 19 18 17 18 20 20 19 18 19 19 18 19 19 20 19 18 19 18 18 18 18 18

GFSFLT1_925_temp_282.txt.gz
Temp
27 26 25 25 24 24 24 24 25 24 25 26 25 24 24 24 25 25 25 25 24 24 23 22 21 21 21 21 20 20 20 20 21
27 25 25 25 25 24 25 24 24 25 24 26 26 25 25 24 24 24 25 25 24 23 23 22 21 21 21 21 20 20 19 19 20
27 26 24 24 25 25 25 25 25 24 24 25 26 25 24 24 24 25 25 24 24 23 23 22 21 21 20 20 19 19 19 19 19
26 25 24 24 24 25 25 24 24 24 24 24 24 24 25 24 24 24 24 24 23 23 23 22 21 21 20 20 19 19 19 19 19
27 25 24 23 23 24 24 24 23 24 24 25 25 25 25 24 24 24 24 24 23 23 22 21 21 20 20 19 19 19 18 18 19
26 24 23 23 22 22 23 23 23 24 24 25 26 25 24 24 23 23 23 23 23 22 22 21 20 20 20 19 19 19 19 19 19
26 24 23 22 22 21 23 23 23 23 24 25 25 25 24 24 24 24 24 23 22 22 21 21 20 20 20 19 19 19 19 19 18
26 25 23 23 22 21 22 22 22 23 24 24 25 24 23 23 23 23 23 22 22 22 21 21 20 20 19 19 19 19 19 19 18
24 25 25 25 24 23 22 23 22 23 23 23 23 22 21 21 21 21 20 20 21 21 21 20 20 19 19 19 19 19 19 18 18
25 26 27 26 25 23 24 24 24 23 22 22 21 20 19 19 19 19 18 17 18 19 19 19 19 19 19 19 19 19 19 18 18
23 23 23 22 22 23 24 25 24 23 21 20 20 19 19 18 18 18 19 18 18 18 18 19 19 19 19 19 19 18 18 18 17
21 20 19 19 19 21 23 21 19 18 18 18 19 19 19 20 20 21 21 18 18 18 17 18 18 19 19 18 19 18 18 17 17
21 19 18 17 18 18 17 16 17 17 17 17 17 18 18 18 18 19 16 17 18 18 17 17 18 18 18 18 18 18 18 17 17
20 18 17 17 17 16 16 17 17 17 17 17 17 17 17 17 17 17 18 18 18 18 17 17 18 18 18 18 18 18 18 17 17
19 17 17 17 17 16 18 18 19 18 17 17 17 17 17 16 16 16 16 16 16 16 16 16 17 18 18 18 18 18 18 18 18
18 17 16 16 16 16 16 18 18 17 17 17 17 18 18 18 17 17 15 16 16 16 16 16 17 16 16 17 18 18 18 18 18
17 16 16 16 16 15 15 17 17 17 17 17 18 18 17 17 16 16 16 15 15 15 15 15 16 16 17 17 17 18 19 19 18
16 16 16 16 16 16 16 17 17 17 17 17 18 18 18 18 17 16 16 16 16 17 18 18 17 17 18 18 19 19 18 18 18
16 16 17 16 16 16 17 17 17 17 17 18 18 19 18 18 17 16 16 16 16 16 17 17 18 18 18 18 19 19 19 19 18
16 16 16 16 16 16 16 16 16 16 17 17 17 18 18 18 19 18 17 18 18 17 16 18 18 17 17 18 18 18 18 18 17

GFSFLT1_925_temp_285.txt.gz
Temp
33 32 32 31 29 28 27 26 25 25 24 24 25 24 24 24 23 23 24 24 23 23 23 22 21 21 21 21 21 20 20 20 20
33 33 32 31 29 28 27 26 25 25 24 25 24 24 24 24 23 23 24 24 24 23 22 22 21 21 21 21 20 20 20 19 19
34 32 31 30 30 28 27 27 26 25 25 25 25 25 24 24 23 23 23 23 23 23 22 21 21 21 21 20 19 19 19 19 19
34 32 31 30 30 28 27 27 27 25 25 25 25 25 25 24 24 23 23 23 23 22 22 22 21 21 21 20 19 19 19 18 18
32 31 31 30 29 28 27 27 27 26 26 25 25 25 24 24 23 23 23 23 23 23 23 22 22 21 20 20 19 19 18 18 19
30 30 30 29 29 28 27 27 27 27 26 25 25 24 24 24 23 23 23 23 22 22 22 22 21 21 20 19 18 18 18 18 18
30 30 29 29 28 28 26 26 25 25 25 25 24 24 24 24 24 24 23 22 21 21 21 22 21 20 19 19 18 18 18 18 18
30 30 29 29 28 27 25 25 24 24 25 24 24 23 24 23 23 22 21 21 22 21 20 20 21 19 19 19 19 19 18 18 18
30 30 29 29 28 28 26 26 25 25 24 24 24 23 24 22 21 20 20 20 19 19 20 19 18 19 18 18 19 19 19 18 18
29 28 28 28 27 27 27 26 25 25 24 23 22 21 20 19 20 19 19 20 21 19 18 18 18 18 18 18 18 19 19 19 18
27 26 25 25 24 23 23 24 24 23 22 21 20 19 18 18 18 19 20 21 22 23 19 18 18 18 18 18 18 19 19 18 17
25 24 23 23 22 20 20 20 19 19 19 19 19 18 18 17 17 18 18 19 18 18 17 17 18 18 18 18 18 19 18 18 17
25 23 21 20 20 19 18 18 18 18 18 18 17 18 19 19 19 18 18 18 17 18 17 17 18 17 17 19 18 19 18 17 17
23 21 20 19 18 18 18 18 18 18 18 18 18 18 17 17 16 16 16 17 17 17 17 16 17 16 17 17 18 18 18 17 17
22 21 19 19 18 18 18 19 19 18 17 17 17 17 17 16 16 16 16 16 16 17 16 16 15 15 16 16 16 17 18 18 17
21 19 17 18 18 18 17 17 18 18 17 17 18 18 17 17 16 16 16 15 16 16 16 16 15 15 15 15 15 16 17 18 18
21 20 19 19 19 18 18 17 17 17 17 17 18 18 18 17 17 16 16 16 15 15 15 15 15 15 14 14 15 16 17 18 17
20 19 19 19 19 18 18 17 17 17 17 17 18 19 18 17 16 16 16 16 15 15 15 16 15 15 15 15 16 17 18 18 18
19 19 18 17 17 16 16 16 16 17 17 17 18 17 17 17 18 17 16 16 15 16 15 16 16 16 16 16 17 17 18 18 18
16 16 16 16 16 16 16 16 16 16 16 17 17 17 18 18 18 18 18 17 16 14 13 15 15 15 16 16 16 16 17 16 16

GFSFLT1_925_temp_288.txt.gz
Temp
38 38 38 37 36 34 32 31 30 29 28 26 26 26 25 25 25 25 25 25 26 25 25 25 25 23 23 22 22 22 22 23 23
38 38 38 37 35 33 32 31 30 29 29 27 27 27 26 25 25 25 27 26 25 26 25 26 24 23 22 22 21 21 21 23 22
39 38 37 37 36 34 32 31 30 29 29 28 28 28 27 27 26 25 26 26 25 26 26 25 24 22 22 21 21 21 20 22 21
39 38 37 36 36 34 33 32 31 29 29 28 28 28 29 28 27 27 26 26 25 25 25 24 23 22 22 21 21 21 20 21 21
38 37 37 36 35 34 33 32 32 31 30 30 29 29 28 28 27 27 27 26 26 25 24 24 23 22 21 21 21 21 20 21 22
36 36 36 36 35 33 33 32 32 32 31 30 30 29 28 27 27 27 27 26 26 25 24 23 23 22 21 21 21 21 20 21 21
36 35 35 36 35 34 32 31 30 30 31 31 29 30 28 27 27 27 27 26 26 25 24 23 23 22 21 21 21 21 21 20 20
35 35 35 34 34 33 31 30 29 28 29 29 29 28 28 27 27 27 26 26 24 23 22 22 22 21 21 21 22 22 21 21 21
34 33 33 33 32 32 31 30 29 28 28 28 27 27 27 27 26 25 24 23 21 21 20 21 20 21 21 21 22 23 21 21 21
32 32 31 30 30 29 28 29 28 28 28 27 26 25 25 23 22 21 20 20 20 22 23 22 20 20 21 21 21 21 20 20 21
30 29 29 28 28 26 25 26 25 25 25 24 21 22 21 20 19 18 17 17 18 18 18 20 19 19 20 21 21 20 20 19 19
29 28 28 27 26 25 23 23 22 20 20 20 20 19 18 18 18 18 19 18 19 19 19 20 20 20 20 20 21 19 19 19 20
29 27 25 25 24 23 22 21 20 20 20 20 19 19 19 18 18 17 18 19 19 20 20 20 21 20 20 20 19 19 19 19 19
27 25 24 24 22 21 21 21 22 21 21 20 19 18 18 18 19 19 19 17 17 18 19 19 19 19 18 17 17 17 17 17 17
27 25 25 24 23 21 20 21 21 21 20 20 19 19 19 19 19 19 19 18 17 17 18 17 18 17 16 16 16 16 16 16 16
26 24 24 24 23 22 21 21 21 21 20 20 20 20 20 19 19 19 19 19 16 16 16 16 15 15 15 15 15 15 15 16 16
26 25 24 23 23 22 21 21 20 20 20 20 21 20 20 19 19 18 17 18 18 15 15 14 15 15 14 13 14 15 16 16 16
25 24 23 23 22 20 18 18 20 21 20 21 21 20 20 20 19 17 16 15 15 17 14 15 16 15 15 14 15 15 15 15 15
24 23 22 19 19 18 18 19 19 19 20 20 21 21 19 18 17 16 16 16 14 15 15 15 15 15 15 15 15 15 15 16 16
18 19 20 20 20 20 20 20 19 18 19 20 20 20 20 19 19 20 18 17 17 17 14 15 15 15 15 15 15 15 16 16 15

GFSFLT1_925_temp_291.txt.gz
Temp
40 41 41 40 39 37 35 34 33 32 30 28 27 27 27 27 26 27 27 27 27 27 28 28 28 26 25 25 24 24 23 24 24
41 41 40 40 39 37 35 34 33 32 31 29 28 28 27 27 26 26 28 27 27 26 26 27 27 26 24 24 23 23 23 24 24
41 41 40 40 39 37 36 34 33 32 31 29 29 29 28 28 27 27 27 28 28 27 27 26 27 25 25 24 23 23 22 24 23
41 41 40 39 39 38 36 35 34 32 31 30 30 30 30 29 29 28 27 27 27 27 27 25 25 24 24 23 23 22 22 22 23
41 41 40 39 39 38 36 35 35 33 32 32 31 31 30 30 29 29 29 28 28 27 27 25 24 24 23 23 23 22 22 22 24
39 39 39 39 38 37 37 36 35 35 33 33 33 31 31 30 30 29 29 29 28 28 27 25 25 24 23 23 23 22 22 22 23
39 38 38 39 38 37 35 34 33 33 34 33 32 33 31 30 29 30 29 29 28 28 26 25 24 24 23 23 23 23 22 22 22
38 38 38 37 37 35 34 32 31 31 30 31 31 31 31 30 29 29 29 29 28 27 25 24 23 23 23 23 23 23 23 22 22
36 35 34 33 33 32 31 31 31 30 30 29 29 29 29 29 28 27 27 26 26 24 24 24 23 23 23 22 23 24 24 23 23
34 33 32 32 31 30 29 30 29 30 28 27 27 24 23 23 23 21 22 22 22 22 23 21 21 22 22 22 22 22 23 22 23
32 32 31 30 30 28 27 26 25 25 23 23 22 21 20 20 20 19 19 20 20 20 19 19 19 21 21 21 21 22 21 21 21
32 31 30 30 29 27 25 24 23 23 22 21 21 20 19 19 19 19 19 19 20 21 21 21 21 22 21 20 20 21 20 20 20
31 29 28 28 27 26 24 23 23 22 22 22 21 20 20 20 20 21 21 20 19 19 20 20 20 21 21 20 20 20 19 19 21
29 29 28 26 25 24 22 23 23 23 23 22 21 20 21 21 20 21 20 19 19 18 19 19 20 20 20 19 19 17 18 18 17
30 29 28 26 24 22 23 23 23 23 21 21 21 21 21 20 20 20 19 19 17 16 18 18 18 17 17 16 16 15 15 16 16
29 28 27 26 25 24 23 23 23 22 21 21 21 21 20 20 19 19 20 19 18 16 15 15 15 15 15 15 15 15 15 14 15
29 28 27 26 25 24 22 23 23 22 21 21 22 21 21 21 20 18 17 18 20 19 18 17 16 14 14 14 14 14 14 14 14
28 27 26 25 23 21 20 21 21 22 22 22 21 22 21 22 20 18 17 15 16 18 16 17 18 17 16 15 14 14 14 14 14
26 25 23 23 22 21 21 22 22 21 22 22 22 23 22 21 21 20 21 20 16 15 15 16 16 15 15 15 15 15 15 15 15
23 23 24 23 23 22 22 21 21 21 21 22 22 23 22 23 22 23 21 20 20 18 14 14 14 15 15 15 14 14 14 14 14

GFSFLT1_925_temp_297.txt.gz
Temp
35 37 34 33 32 32 32 30 29 28 27 27 27 27 27 27 27 27 27 27 27 27 27 27 27 26 25 25 25 24 23 23 24
35 34 34 32 31 32 32 31 29 29 28 28 27 27 27 26 27 27 26 26 27 27 27 27 27 26 25 25 25 24 23 23 24
34 34 33 32 31 32 32 33 31 30 29 28 27 27 27 26 26 26 26 26 26 27 27 27 26 26 25 25 25 24 23 23 23
34 33 32 32 31 33 34 33 32 30 29 28 27 27 26 26 26 26 26 26 27 26 27 27 27 26 25 25 24 24 23 23 23
34 33 32 32 32 34 34 32 32 31 30 29 29 28 28 27 28 27 27 27 27 27 27 27 26 26 25 24 24 24 23 23 23
32 32 32 30 30 29 30 31 31 31 31 30 30 29 29 29 28 28 28 27 27 28 27 27 27 26 25 25 24 23 23 23 22
32 31 31 30 29 28 29 30 30 31 31 30 30 30 30 29 29 29 28 28 28 28 27 25 24 24 24 24 25 24 21 22 22
30 29 29 28 28 27 27 27 25 25 25 25 25 25 25 23 24 26 25 25 23 23 23 23 22 20 20 23 22 23 21 21 22
29 29 28 27 26 26 25 24 23 23 22 22 22 22 21 22 22 22 22 23 22 21 21 20 21 21 21 20 21 22 22 22 21
29 28 27 25 24 24 23 22 23 22 21 21 21 20 20 21 21 21 20 20 21 20 20 20 20 20 20 20 21 21 22 22 22
28 27 26 24 23 23 23 22 22 22 21 21 20 20 21 21 21 20 20 20 19 19 19 19 19 19 20 20 20 21 21 21 21
27 26 25 24 24 23 23 23 22 22 21 21 21 20 20 20 20 20 19 18 17 17 17 17 18 18 19 19 19 19 20 20 19
27 26 25 24 23 23 23 22 22 21 21 21 21 20 20 20 20 20 19 18 17 16 16 16 16 15 15 15 16 18 18 17 16
26 25 24 23 23 23 23 22 22 21 21 21 21 20 20 20 19 19 19 18 18 16 15 15 14 14 14 14 15 15 16 17 17
24 23 23 23 22 23 22 22 22 21 21 21 21 20 20 19 19 19 19 18 18 17 16 15 14 14 14 14 14 14 14 14 14
24 23 23 23 23 23 22 22 22 21 21 21 20 20 20 19 19 19 19 18 18 17 16 16 16 15 14 14 14 14 14 14 14
24 24 23 23 22 22 21 22 22 22 22 21 21 20 20 20 20 20 19 18 18 18 17 17 16 16 15 15 15 15 14 14 14
25 24 22 23 21 21 21 22 22 22 22 22 21 21 21 20 19 18 18 18 17 16 16 16 16 15 16 15 15 14 14 14 15
23 22 22 22 22 22 21 22 22 22 22 22 22 22 21 21 20 18 18 18 17 17 16 16 16 16 16 16 15 15 14 15 15
22 22 22 22 22 22 22 22 22 22 22 22 22 21 21 21 21 19 18 17 17 17 15 16 17 17 17 17 17 16 16 16 16